Time,TemperatureF,DewpointF,PressureIn,WindDirection,WindDirectionDegrees,WindSpeedMPH,WindSpeedGustMPH,Humidity,HourlyPrecipIn,Conditions,Clouds,dailyrainin,SoftwareType,DateUTC
2013-08-02 00:00:00,55.0,50.3,29.96,South,188,0.0,11.0,84,0.00,,---,0.00,VWS V14.01,2013-08-02 07:00:00,
2013-08-02 00:01:00,54.9,50.2,29.96,South,187,0.0,0.0,84,0.00,,---,0.00,VWS V14.01,2013-08-02 07:01:00,
2013-08-02 00:06:00,54.8,50.1,29.95,South,187,0.0,0.0,84,0.00,,---,0.00,VWS V14.01,2013-08-02 07:06:00,
2013-08-02 00:11:00,54.8,49.7,29.96,South,187,0.0,0.0,83,0.00,,---,0.00,VWS V14.01,2013-08-02 07:11:00,
2013-08-02 00:16:00,54.9,50.2,29.95,South,186,0.0,3.0,84,0.00,,---,0.00,VWS V14.01,2013-08-02 07:16:00,
2013-08-02 00:21:00,54.8,50.1,29.95,West,281,0.0,3.0,84,0.00,,---,0.00,VWS V14.01,2013-08-02 07:21:00,
2013-08-02 00:27:00,54.8,50.1,29.95,West,280,0.0,3.0,84,0.00,,---,0.00,VWS V14.01,2013-08-02 07:27:00,
2013-08-02 00:30:00,54.8,50.1,29.95,West,281,0.0,3.0,84,0.00,,---,0.00,VWS V14.01,2013-08-02 07:30:00,
2013-08-02 00:32:00,54.8,50.1,29.95,West,281,0.0,0.0,84,0.00,,---,0.00,VWS V14.01,2013-08-02 07:32:00,
2013-08-02 00:37:00,54.6,49.9,29.95,West,281,0.0,0.0,84,0.00,,---,0.00,VWS V14.01,2013-08-02 07:37:00,
2013-08-02 00:42:00,54.5,49.8,29.95,West,279,0.0,6.0,84,0.00,,---,0.00,VWS V14.01,2013-08-02 07:42:00,
2013-08-02 00:47:00,54.4,49.3,29.95,West,278,0.0,6.0,83,0.00,,---,0.00,VWS V14.01,2013-08-02 07:47:00,
2013-08-02 00:52:00,54.1,49.1,29.94,West,278,0.0,6.0,83,0.00,,---,0.00,VWS V14.01,2013-08-02 07:52:00,
2013-08-02 00:58:00,54.0,49.0,29.94,West,277,0.0,6.0,83,0.00,,---,0.00,VWS V14.01,2013-08-02 07:58:00,
2013-08-02 01:00:00,54.0,49.0,29.94,West,277,0.0,6.0,83,0.00,,---,0.00,VWS V14.01,2013-08-02 08:00:00,
2013-08-02 01:03:00,53.9,48.9,29.94,West,277,0.0,0.0,83,0.00,,---,0.00,VWS V14.01,2013-08-02 08:03:00,
2013-08-02 01:08:00,53.8,48.4,29.94,West,277,0.0,0.0,82,0.00,,---,0.00,VWS V14.01,2013-08-02 08:08:00,
2013-08-02 01:13:00,53.7,48.3,29.94,West,277,0.0,0.0,82,0.00,,---,0.00,VWS V14.01,2013-08-02 08:13:00,
2013-08-02 01:18:00,53.6,48.2,29.94,West,277,0.0,0.0,82,0.00,,---,0.00,VWS V14.01,2013-08-02 08:18:00,
2013-08-02 01:23:00,53.5,48.2,29.94,West,277,0.0,0.0,82,0.00,,---,0.00,VWS V14.01,2013-08-02 08:23:00,
2013-08-02 01:28:00,53.5,48.2,29.94,WSW,246,0.0,3.0,82,0.00,,---,0.00,VWS V14.01,2013-08-02 08:28:00,
2013-08-02 01:30:00,53.5,48.2,29.94,WSW,246,0.0,3.0,82,0.00,,---,0.00,VWS V14.01,2013-08-02 08:30:00,
2013-08-02 01:33:00,53.5,48.2,29.94,West,279,0.0,3.0,82,0.00,,---,0.00,VWS V14.01,2013-08-02 08:33:00,
2013-08-02 01:39:00,53.5,47.8,29.94,NW,311,5.0,11.0,81,0.00,,---,0.00,VWS V14.01,2013-08-02 08:39:00,
2013-08-02 01:44:00,53.3,47.3,29.94,NW,322,9.0,11.0,80,0.00,,---,0.00,VWS V14.01,2013-08-02 08:44:00,
2013-08-02 01:49:00,53.0,46.7,29.94,NW,313,6.0,13.0,79,0.00,,---,0.00,VWS V14.01,2013-08-02 08:49:00,
2013-08-02 01:54:00,52.9,46.2,29.94,NW,304,4.0,13.0,78,0.00,,---,0.00,VWS V14.01,2013-08-02 08:54:00,
2013-08-02 01:59:00,52.8,45.8,29.94,NW,311,6.0,7.0,77,0.00,,---,0.00,VWS V14.01,2013-08-02 08:59:00,
2013-08-02 02:00:00,52.8,45.8,29.94,North,360,7.0,13.0,77,0.00,,---,0.00,VWS V14.01,2013-08-02 09:00:00,
2013-08-02 02:04:00,52.8,45.5,29.94,NW,317,10.0,11.0,76,0.00,,---,0.00,VWS V14.01,2013-08-02 09:04:00,
2013-08-02 02:09:00,52.7,45.4,29.94,North,360,10.0,11.0,76,0.00,,---,0.00,VWS V14.01,2013-08-02 09:09:00,
2013-08-02 02:15:00,52.6,45.3,29.93,NW,304,11.0,14.0,76,0.00,,---,0.00,VWS V14.01,2013-08-02 09:15:00,
2013-08-02 02:20:00,52.5,44.8,29.93,NW,309,15.0,15.0,75,0.00,,---,0.00,VWS V14.01,2013-08-02 09:20:00,
2013-08-02 02:25:00,52.4,44.7,29.93,NW,322,11.0,17.0,75,0.00,,---,0.00,VWS V14.01,2013-08-02 09:25:00,
2013-08-02 02:30:00,52.3,44.6,29.93,NW,317,10.0,16.0,75,0.00,,---,0.00,VWS V14.01,2013-08-02 09:30:00,
2013-08-02 02:35:00,52.3,44.6,29.93,NNW,329,13.0,17.0,75,0.00,,---,0.00,VWS V14.01,2013-08-02 09:35:00,
2013-08-02 02:40:00,52.2,44.5,29.92,NW,319,15.0,19.0,75,0.00,,---,0.00,VWS V14.01,2013-08-02 09:40:00,
2013-08-02 02:45:00,52.1,44.4,29.92,NW,315,11.0,19.0,75,0.00,,---,0.00,VWS V14.01,2013-08-02 09:45:00,
2013-08-02 02:51:00,52.1,44.4,29.92,NNW,333,13.0,19.0,75,0.00,,---,0.00,VWS V14.01,2013-08-02 09:51:00,
2013-08-02 02:56:00,52.1,44.4,29.92,NW,307,14.0,20.0,75,0.00,,---,0.00,VWS V14.01,2013-08-02 09:56:00,
2013-08-02 03:00:00,52.0,44.0,29.92,NW,314,17.0,20.0,74,0.00,,---,0.00,VWS V14.01,2013-08-02 10:00:00,
2013-08-02 03:01:00,52.0,44.0,29.92,NW,313,17.0,22.0,74,0.00,,---,0.00,VWS V14.01,2013-08-02 10:01:00,
2013-08-02 03:06:00,52.0,44.0,29.92,NW,322,19.0,23.0,74,0.00,,---,0.00,VWS V14.01,2013-08-02 10:06:00,
2013-08-02 03:11:00,51.9,43.9,29.91,NW,314,16.0,23.0,74,0.00,,---,0.00,VWS V14.01,2013-08-02 10:11:00,
2013-08-02 03:16:00,51.9,43.9,29.91,NW,317,17.0,23.0,74,0.00,,---,0.00,VWS V14.01,2013-08-02 10:16:00,
2013-08-02 03:21:00,51.9,43.9,29.91,NW,315,16.0,23.0,74,0.00,,---,0.00,VWS V14.01,2013-08-02 10:21:00,
2013-08-02 03:27:00,51.9,43.9,29.91,North,350,17.0,23.0,74,0.00,,---,0.00,VWS V14.01,2013-08-02 10:27:00,
2013-08-02 03:30:00,51.9,43.9,29.91,NW,317,17.0,23.0,74,0.00,,---,0.00,VWS V14.01,2013-08-02 10:30:00,
2013-08-02 03:32:00,51.9,43.9,29.91,NW,313,15.0,21.0,74,0.00,,---,0.00,VWS V14.01,2013-08-02 10:32:00,
2013-08-02 03:37:00,51.9,43.9,29.91,NW,314,15.0,23.0,74,0.00,,---,0.00,VWS V14.01,2013-08-02 10:37:00,
2013-08-02 03:42:00,51.9,43.5,29.91,NNW,329,13.0,23.0,73,0.00,,---,0.00,VWS V14.01,2013-08-02 10:42:00,
2013-08-02 03:47:00,51.9,43.5,29.91,NW,304,16.0,23.0,73,0.00,,---,0.00,VWS V14.01,2013-08-02 10:47:00,
2013-08-02 03:53:00,51.9,43.5,29.91,NW,319,12.0,23.0,73,0.00,,---,0.00,VWS V14.01,2013-08-02 10:53:00,
2013-08-02 03:58:00,51.8,43.4,29.91,NW,320,19.0,23.0,73,0.00,,---,0.00,VWS V14.01,2013-08-02 10:58:00,
2013-08-02 04:00:00,51.8,43.4,29.91,NW,321,15.0,23.0,73,0.00,,---,0.00,VWS V14.01,2013-08-02 11:00:00,
2013-08-02 04:03:00,51.7,43.3,29.91,NW,322,13.0,22.0,73,0.00,,---,0.00,VWS V14.01,2013-08-02 11:03:00,
2013-08-02 04:08:00,51.8,43.4,29.91,NW,320,15.0,22.0,73,0.00,,---,0.00,VWS V14.01,2013-08-02 11:08:00,
2013-08-02 04:13:00,51.7,43.3,29.91,NNW,329,18.0,22.0,73,0.00,,---,0.00,VWS V14.01,2013-08-02 11:13:00,
2013-08-02 04:18:00,51.6,43.2,29.92,NW,321,13.0,22.0,73,0.00,,---,0.00,VWS V14.01,2013-08-02 11:18:00,
2013-08-02 04:23:00,51.6,43.2,29.92,NW,304,13.0,22.0,73,0.00,,---,0.00,VWS V14.01,2013-08-02 11:23:00,
2013-08-02 04:28:00,51.6,43.2,29.92,WNW,284,3.0,22.0,73,0.00,,---,0.00,VWS V14.01,2013-08-02 11:28:00,
2013-08-02 04:30:00,51.6,43.2,29.92,NW,314,4.0,22.0,73,0.00,,---,0.00,VWS V14.01,2013-08-02 11:30:00,
2013-08-02 04:33:00,51.6,43.2,29.92,NW,315,11.0,19.0,73,0.00,,---,0.00,VWS V14.01,2013-08-02 11:33:00,
2013-08-02 04:39:00,51.5,43.1,29.92,North,360,15.0,19.0,73,0.00,,---,0.00,VWS V14.01,2013-08-02 11:39:00,
2013-08-02 04:44:00,51.5,43.1,29.92,NW,315,6.0,19.0,73,0.00,,---,0.00,VWS V14.01,2013-08-02 11:44:00,
2013-08-02 04:49:00,51.5,43.1,29.93,SW,226,2.0,19.0,73,0.00,,---,0.00,VWS V14.01,2013-08-02 11:49:00,
2013-08-02 04:54:00,51.4,43.0,29.93,NW,316,4.0,19.0,73,0.00,,---,0.00,VWS V14.01,2013-08-02 11:54:00,
2013-08-02 04:59:00,51.2,43.2,29.93,WNW,302,4.0,9.0,74,0.00,,---,0.00,VWS V14.01,2013-08-02 11:59:00,
2013-08-02 05:00:00,51.3,43.3,29.93,NW,304,9.0,19.0,74,0.00,,---,0.00,VWS V14.01,2013-08-02 12:00:00,
2013-08-02 05:04:00,51.2,43.2,29.93,NNW,348,0.0,12.0,74,0.00,,---,0.00,VWS V14.01,2013-08-02 12:04:00,
2013-08-02 05:09:00,51.1,43.1,29.93,WNW,285,0.0,12.0,74,0.00,,---,0.00,VWS V14.01,2013-08-02 12:09:00,
2013-08-02 05:14:00,50.9,42.9,29.93,NW,326,6.0,13.0,74,0.00,,---,0.00,VWS V14.01,2013-08-02 12:14:00,
2013-08-02 05:20:00,50.7,42.7,29.93,NW,306,5.0,15.0,74,0.00,,---,0.00,VWS V14.01,2013-08-02 12:20:00,
2013-08-02 05:25:00,50.7,42.7,29.93,ENE,65,0.0,15.0,74,0.00,,---,0.00,VWS V14.01,2013-08-02 12:25:00,
2013-08-02 05:30:00,50.6,42.6,29.93,West,263,2.0,10.0,74,0.00,,---,0.00,VWS V14.01,2013-08-02 12:30:00,
2013-08-02 05:35:00,50.5,42.5,29.93,NW,314,10.0,17.0,74,0.00,,---,0.00,VWS V14.01,2013-08-02 12:35:00,
2013-08-02 05:40:00,50.4,42.4,29.93,North,360,3.0,17.0,74,0.00,,---,0.00,VWS V14.01,2013-08-02 12:40:00,
2013-08-02 05:45:00,50.3,42.3,29.93,WNW,288,10.0,17.0,74,0.00,,---,0.00,VWS V14.01,2013-08-02 12:45:00,
2013-08-02 05:51:00,50.4,42.4,29.93,SW,229,0.0,17.0,74,0.00,,---,0.00,VWS V14.01,2013-08-02 12:51:00,
2013-08-02 05:56:00,50.4,42.4,29.94,NW,313,12.0,17.0,74,0.00,,---,0.00,VWS V14.01,2013-08-02 12:56:00,
2013-08-02 06:00:00,50.3,42.3,29.94,North,360,0.0,17.0,74,0.00,,---,0.00,VWS V14.01,2013-08-02 13:00:00,
2013-08-02 06:01:00,50.3,42.3,29.94,WNW,285,3.0,10.0,74,0.00,,---,0.00,VWS V14.01,2013-08-02 13:01:00,
2013-08-02 06:06:00,50.3,42.3,29.94,WNW,303,5.0,13.0,74,0.00,,---,0.00,VWS V14.01,2013-08-02 13:06:00,
2013-08-02 06:11:00,50.4,42.4,29.94,NW,312,6.0,13.0,74,0.00,,---,0.00,VWS V14.01,2013-08-02 13:11:00,
2013-08-02 06:17:00,50.3,42.3,29.94,NW,311,7.0,13.0,74,0.00,,---,0.00,VWS V14.01,2013-08-02 13:17:00,
2013-08-02 06:22:00,50.3,42.3,29.94,NW,317,4.0,15.0,74,0.00,,---,0.00,VWS V14.01,2013-08-02 13:22:00,
2013-08-02 06:27:00,50.3,42.3,29.94,NW,318,10.0,18.0,74,0.00,,---,0.00,VWS V14.01,2013-08-02 13:27:00,
2013-08-02 06:30:00,50.3,42.3,29.94,NW,313,12.0,18.0,74,0.00,,---,0.00,VWS V14.01,2013-08-02 13:30:00,
2013-08-02 06:32:00,50.4,42.4,29.94,NW,318,7.0,16.0,74,0.00,,---,0.00,VWS V14.01,2013-08-02 13:32:00,
2013-08-02 06:37:00,50.4,42.4,29.94,NNW,328,11.0,16.0,74,0.00,,---,0.00,VWS V14.01,2013-08-02 13:37:00,
2013-08-02 06:42:00,50.3,42.3,29.94,NW,306,10.0,17.0,74,0.00,,---,0.00,VWS V14.01,2013-08-02 13:42:00,
2013-08-02 06:47:00,50.3,42.3,29.94,NW,324,12.0,17.0,74,0.00,,---,0.00,VWS V14.01,2013-08-02 13:47:00,
2013-08-02 06:52:00,50.4,42.1,29.94,NW,309,9.0,17.0,73,0.00,,---,0.00,VWS V14.01,2013-08-02 13:52:00,
2013-08-02 06:57:00,50.4,42.1,29.94,North,360,9.0,17.0,73,0.00,,---,0.00,VWS V14.01,2013-08-02 13:57:00,
2013-08-02 07:00:00,50.4,42.1,29.94,NW,321,17.0,19.0,73,0.00,,---,0.00,VWS V14.01,2013-08-02 14:00:00,
2013-08-02 07:03:00,50.3,42.3,29.94,NW,323,13.0,17.0,74,0.00,,---,0.00,VWS V14.01,2013-08-02 14:03:00,
2013-08-02 07:08:00,50.2,42.2,29.94,NW,317,15.0,20.0,74,0.00,,---,0.00,VWS V14.01,2013-08-02 14:08:00,
2013-08-02 07:13:00,50.5,42.2,29.94,North,360,11.0,20.0,73,0.00,,---,0.00,VWS V14.01,2013-08-02 14:13:00,
2013-08-02 07:18:00,50.6,42.3,29.95,NW,317,12.0,20.0,73,0.00,,---,0.00,VWS V14.01,2013-08-02 14:18:00,
2013-08-02 07:23:00,50.7,42.4,29.95,NW,307,11.0,20.0,73,0.00,,---,0.00,VWS V14.01,2013-08-02 14:23:00,
2013-08-02 07:28:00,50.7,42.4,29.95,NW,325,5.0,20.0,73,0.00,,---,0.00,VWS V14.01,2013-08-02 14:28:00,
2013-08-02 07:30:00,50.8,42.5,29.96,NW,318,10.0,20.0,73,0.00,,---,0.00,VWS V14.01,2013-08-02 14:30:00,
2013-08-02 07:33:00,50.9,42.6,29.96,NW,318,6.0,14.0,73,0.00,,---,0.00,VWS V14.01,2013-08-02 14:33:00,
2013-08-02 07:38:00,51.0,42.7,29.96,NW,305,2.0,14.0,73,0.00,,---,0.00,VWS V14.01,2013-08-02 14:38:00,
2013-08-02 07:43:00,51.1,42.8,29.96,NW,317,7.0,14.0,73,0.00,,---,0.00,VWS V14.01,2013-08-02 14:43:00,
2013-08-02 07:48:00,51.2,42.9,29.96,NW,323,0.0,14.0,73,0.00,,---,0.00,VWS V14.01,2013-08-02 14:48:00,
2013-08-02 07:53:00,51.4,43.0,29.96,SW,234,0.0,14.0,73,0.00,,---,0.00,VWS V14.01,2013-08-02 14:53:00,
2013-08-02 07:58:00,51.5,43.1,29.96,NW,318,0.0,14.0,73,0.00,,---,0.00,VWS V14.01,2013-08-02 14:58:00,
2013-08-02 08:00:00,51.5,43.1,29.96,NW,318,0.0,14.0,73,0.00,,---,0.00,VWS V14.01,2013-08-02 15:00:00,
2013-08-02 08:03:00,51.4,43.0,29.96,West,279,6.0,15.0,73,0.00,,---,0.00,VWS V14.01,2013-08-02 15:03:00,
2013-08-02 08:08:00,51.3,43.0,29.96,NNW,329,11.0,15.0,73,0.00,,---,0.00,VWS V14.01,2013-08-02 15:08:00,
2013-08-02 08:14:00,51.4,43.0,29.96,NW,323,4.0,15.0,73,0.00,,---,0.00,VWS V14.01,2013-08-02 15:14:00,
2013-08-02 08:19:00,51.4,43.0,29.96,NW,323,5.0,15.0,73,0.00,,---,0.00,VWS V14.01,2013-08-02 15:19:00,
2013-08-02 08:24:00,51.4,43.0,29.96,NW,317,10.0,15.0,73,0.00,,---,0.00,VWS V14.01,2013-08-02 15:24:00,
2013-08-02 08:29:00,51.3,43.0,29.96,North,360,4.0,7.0,73,0.00,,---,0.00,VWS V14.01,2013-08-02 15:29:00,
2013-08-02 08:30:00,51.3,43.0,29.96,NW,319,5.0,15.0,73,0.00,,---,0.00,VWS V14.01,2013-08-02 15:30:00,
2013-08-02 08:34:00,51.3,43.0,29.97,NW,321,4.0,12.0,73,0.00,,---,0.00,VWS V14.01,2013-08-02 15:34:00,
2013-08-02 08:39:00,51.2,42.9,29.97,West,279,0.0,15.0,73,0.00,,---,0.00,VWS V14.01,2013-08-02 15:39:00,
2013-08-02 08:44:00,51.4,43.0,29.97,NW,311,5.0,15.0,73,0.00,,---,0.00,VWS V14.01,2013-08-02 15:44:00,
2013-08-02 08:49:00,51.3,43.0,29.97,NW,321,11.0,15.0,73,0.00,,---,0.00,VWS V14.01,2013-08-02 15:49:00,
2013-08-02 08:55:00,51.3,43.0,29.97,NW,317,3.0,15.0,73,0.00,,---,0.00,VWS V14.01,2013-08-02 15:55:00,
2013-08-02 09:00:00,51.3,43.0,29.97,NW,306,0.0,5.0,73,0.00,,---,0.00,VWS V14.01,2013-08-02 16:00:00,
2013-08-02 09:05:00,51.4,43.0,29.98,WNW,303,0.0,9.0,73,0.00,,---,0.00,VWS V14.01,2013-08-02 16:05:00,
2013-08-02 09:10:00,51.4,43.0,29.98,North,360,2.0,11.0,73,0.00,,---,0.00,VWS V14.01,2013-08-02 16:10:00,
2013-08-02 09:15:00,51.4,43.0,29.98,NW,317,0.0,11.0,73,0.00,,---,0.00,VWS V14.01,2013-08-02 16:15:00,
2013-08-02 09:20:00,51.4,43.0,29.98,NW,306,4.0,13.0,73,0.00,,---,0.00,VWS V14.01,2013-08-02 16:20:00,
2013-08-02 09:25:00,51.9,43.5,29.97,ENE,63,0.0,13.0,73,0.00,,---,0.00,VWS V14.01,2013-08-02 16:25:00,
2013-08-02 09:30:00,51.9,43.5,29.97,NW,306,3.0,12.0,73,0.00,,---,0.00,VWS V14.01,2013-08-02 16:30:00,
2013-08-02 09:35:00,52.1,43.7,29.97,NE,47,1.0,12.0,73,0.00,,---,0.00,VWS V14.01,2013-08-02 16:35:00,
2013-08-02 09:40:00,51.9,43.5,29.97,NW,317,6.0,18.0,73,0.00,,---,0.00,VWS V14.01,2013-08-02 16:40:00,
2013-08-02 09:46:00,51.8,43.4,29.97,NW,326,12.0,18.0,73,0.00,,---,0.00,VWS V14.01,2013-08-02 16:46:00,
2013-08-02 09:51:00,51.9,43.5,29.97,NW,315,2.0,18.0,73,0.00,,---,0.00,VWS V14.01,2013-08-02 16:51:00,
2013-08-02 09:56:00,51.9,43.5,29.97,NW,315,5.0,18.0,73,0.00,,---,0.00,VWS V14.01,2013-08-02 16:56:00,
2013-08-02 10:00:00,52.0,43.6,29.97,WNW,286,11.0,18.0,73,0.00,,---,0.00,VWS V14.01,2013-08-02 17:00:00,
2013-08-02 10:01:00,52.0,43.6,29.97,NW,318,14.0,14.0,73,0.00,,---,0.00,VWS V14.01,2013-08-02 17:01:00,
2013-08-02 10:06:00,52.1,43.7,29.97,NW,319,10.0,14.0,73,0.00,,---,0.00,VWS V14.01,2013-08-02 17:06:00,
2013-08-02 10:11:00,52.0,43.6,29.98,NW,317,0.0,15.0,73,0.00,,---,0.00,VWS V14.01,2013-08-02 17:11:00,
2013-08-02 10:16:00,52.3,43.9,29.97,WNW,288,5.0,15.0,73,0.00,,---,0.00,VWS V14.01,2013-08-02 17:16:00,
2013-08-02 10:21:00,52.3,43.9,29.97,NW,311,13.0,16.0,73,0.00,,---,0.00,VWS V14.01,2013-08-02 17:21:00,
2013-08-02 10:26:00,52.7,44.3,29.97,NW,313,11.0,16.0,73,0.00,,---,0.00,VWS V14.01,2013-08-02 17:26:00,
2013-08-02 10:30:00,52.8,44.4,29.97,NW,304,7.0,16.0,73,0.00,,---,0.00,VWS V14.01,2013-08-02 17:30:00,
2013-08-02 10:31:00,53.1,44.7,29.98,WNW,288,12.0,14.0,73,0.00,,---,0.00,VWS V14.01,2013-08-02 17:31:00,
2013-08-02 10:36:00,53.3,45.2,29.97,North,360,4.0,17.0,74,0.00,,---,0.00,VWS V14.01,2013-08-02 17:36:00,
2013-08-02 10:42:00,53.7,46.0,29.97,NNW,333,11.0,17.0,75,0.00,,---,0.00,VWS V14.01,2013-08-02 17:42:00,
2013-08-02 10:47:00,54.1,47.4,29.97,NW,317,11.0,18.0,78,0.00,,---,0.00,VWS V14.01,2013-08-02 17:47:00,
2013-08-02 10:52:00,54.5,49.1,29.97,NW,313,5.0,18.0,82,0.00,,---,0.00,VWS V14.01,2013-08-02 17:52:00,
2013-08-02 10:57:00,54.9,50.2,29.97,WNW,288,7.0,18.0,84,0.00,,---,0.00,VWS V14.01,2013-08-02 17:57:00,
2013-08-02 11:00:00,55.2,50.5,29.97,NW,313,6.0,18.0,84,0.00,,---,0.00,VWS V14.01,2013-08-02 18:00:00,
2013-08-02 11:02:00,55.9,51.5,29.97,NW,324,3.0,16.0,85,0.00,,---,0.00,VWS V14.01,2013-08-02 18:02:00,
2013-08-02 11:07:00,55.9,52.1,29.97,NW,314,7.0,16.0,87,0.00,,---,0.00,VWS V14.01,2013-08-02 18:07:00,
2013-08-02 11:12:00,56.0,52.2,29.97,NW,317,9.0,16.0,87,0.00,,---,0.00,VWS V14.01,2013-08-02 18:12:00,
2013-08-02 11:18:00,56.6,52.8,29.97,NW,315,5.0,16.0,87,0.00,,---,0.00,VWS V14.01,2013-08-02 18:18:00,
2013-08-02 11:23:00,56.9,53.1,29.97,ENE,67,3.0,16.0,87,0.00,,---,0.00,VWS V14.01,2013-08-02 18:23:00,
2013-08-02 11:28:00,57.5,53.7,29.97,NW,315,4.0,17.0,87,0.00,,---,0.00,VWS V14.01,2013-08-02 18:28:00,
2013-08-02 11:30:00,57.5,53.7,29.97,West,268,2.0,17.0,87,0.00,,---,0.00,VWS V14.01,2013-08-02 18:30:00,
2013-08-02 11:33:00,58.0,54.2,29.97,SW,215,0.0,14.0,87,0.00,,---,0.00,VWS V14.01,2013-08-02 18:33:00,
2013-08-02 11:38:00,58.6,54.8,29.97,SW,219,0.0,14.0,87,0.00,,---,0.00,VWS V14.01,2013-08-02 18:38:00,
2013-08-02 11:43:00,59.0,54.5,29.97,NW,323,7.0,14.0,85,0.00,,---,0.00,VWS V14.01,2013-08-02 18:43:00,
2013-08-02 11:49:00,58.9,54.4,29.97,NW,317,11.0,15.0,85,0.00,,---,0.00,VWS V14.01,2013-08-02 18:49:00,
2013-08-02 11:53:00,59.0,54.8,29.97,NW,317,10.0,15.0,86,0.00,,---,0.00,VWS V14.01,2013-08-02 18:53:00,
2013-08-02 11:59:00,58.1,53.9,29.97,NW,307,5.0,13.0,86,0.00,,---,0.00,VWS V14.01,2013-08-02 18:59:00,
2013-08-02 12:00:00,58.1,53.9,29.97,NW,306,13.0,16.0,86,0.00,,---,0.00,VWS V14.01,2013-08-02 19:00:00,
2013-08-02 12:04:00,57.9,53.7,29.97,WNW,286,4.0,16.0,86,0.00,,---,0.00,VWS V14.01,2013-08-02 19:04:00,
2013-08-02 12:09:00,57.8,53.7,29.97,NNW,328,14.0,16.0,86,0.00,,---,0.00,VWS V14.01,2013-08-02 19:09:00,
2013-08-02 12:14:00,57.9,53.7,29.97,NNE,13,2.0,16.0,86,0.00,,---,0.00,VWS V14.01,2013-08-02 19:14:00,
2013-08-02 12:19:00,58.0,53.8,29.96,NW,306,5.0,17.0,86,0.00,,---,0.00,VWS V14.01,2013-08-02 19:19:00,
2013-08-02 12:24:00,57.8,53.7,29.96,NW,325,5.0,18.0,86,0.00,,---,0.00,VWS V14.01,2013-08-02 19:24:00,
2013-08-02 12:30:00,58.1,53.9,29.96,NW,318,15.0,16.0,86,0.00,,---,0.00,VWS V14.01,2013-08-02 19:30:00,
2013-08-02 12:35:00,59.0,54.5,29.96,NW,326,9.0,16.0,85,0.00,,---,0.00,VWS V14.01,2013-08-02 19:35:00,
2013-08-02 12:40:00,59.7,54.9,29.96,NNE,24,1.0,16.0,84,0.00,,---,0.00,VWS V14.01,2013-08-02 19:40:00,
2013-08-02 12:45:00,59.5,54.3,29.95,NW,311,11.0,17.0,83,0.00,,---,0.00,VWS V14.01,2013-08-02 19:45:00,
2013-08-02 12:50:00,58.7,54.2,29.96,NW,326,7.0,18.0,85,0.00,,---,0.00,VWS V14.01,2013-08-02 19:50:00,
2013-08-02 12:55:00,58.1,53.9,29.96,NW,306,2.0,19.0,86,0.00,,---,0.00,VWS V14.01,2013-08-02 19:55:00,
2013-08-02 13:00:00,58.7,54.5,29.95,NNE,17,2.0,10.0,86,0.00,,---,0.00,VWS V14.01,2013-08-02 20:00:00,
2013-08-02 13:05:00,58.3,53.8,29.95,NW,315,11.0,17.0,85,0.00,,---,0.00,VWS V14.01,2013-08-02 20:05:00,
2013-08-02 13:10:00,57.9,53.7,29.95,NNW,333,4.0,21.0,86,0.00,,---,0.00,VWS V14.01,2013-08-02 20:10:00,
2013-08-02 13:15:00,58.3,53.8,29.95,NW,311,9.0,21.0,85,0.00,,---,0.00,VWS V14.01,2013-08-02 20:15:00,
2013-08-02 13:21:00,57.7,53.9,29.95,NW,321,8.0,21.0,87,0.00,,---,0.00,VWS V14.01,2013-08-02 20:21:00,
2013-08-02 13:26:00,57.3,53.2,29.94,NW,317,12.0,22.0,86,0.00,,---,0.00,VWS V14.01,2013-08-02 20:26:00,
2013-08-02 13:30:00,57.0,53.2,29.94,NW,314,12.0,22.0,87,0.00,,---,0.00,VWS V14.01,2013-08-02 20:30:00,
2013-08-02 13:31:00,57.0,53.2,29.94,NW,309,16.0,20.0,87,0.00,,---,0.00,VWS V14.01,2013-08-02 20:31:00,
2013-08-02 13:36:00,56.6,52.8,29.94,NW,317,19.0,24.0,87,0.00,,---,0.00,VWS V14.01,2013-08-02 20:36:00,
2013-08-02 13:41:00,56.5,52.7,29.94,NW,326,17.0,24.0,87,0.00,,---,0.00,VWS V14.01,2013-08-02 20:41:00,
2013-08-02 13:46:00,57.1,53.3,29.94,NW,313,9.0,24.0,87,0.00,,---,0.00,VWS V14.01,2013-08-02 20:46:00,
2013-08-02 13:51:00,57.5,53.3,29.94,NNW,331,16.0,24.0,86,0.00,,---,0.00,VWS V14.01,2013-08-02 20:51:00,
2013-08-02 13:57:00,56.9,53.1,29.94,NW,313,11.0,24.0,87,0.00,,---,0.00,VWS V14.01,2013-08-02 20:57:00,
2013-08-02 14:00:00,56.6,52.8,29.94,NNW,335,20.0,26.0,87,0.00,,---,0.00,VWS V14.01,2013-08-02 21:00:00,
2013-08-02 14:02:00,56.1,52.3,29.94,NW,314,17.0,23.0,87,0.00,,---,0.00,VWS V14.01,2013-08-02 21:02:00,
2013-08-02 14:07:00,56.7,52.9,29.95,NW,321,15.0,23.0,87,0.00,,---,0.00,VWS V14.01,2013-08-02 21:07:00,
2013-08-02 14:12:00,56.8,53.0,29.95,NNW,327,17.0,23.0,87,0.00,,---,0.00,VWS V14.01,2013-08-02 21:12:00,
2013-08-02 14:17:00,56.2,52.4,29.94,NNW,327,13.0,25.0,87,0.00,,---,0.00,VWS V14.01,2013-08-02 21:17:00,
2013-08-02 14:22:00,56.6,52.8,29.94,NNW,334,15.0,25.0,87,0.00,,---,0.00,VWS V14.01,2013-08-02 21:22:00,
2013-08-02 14:27:00,56.1,52.3,29.94,NNW,328,12.0,26.0,87,0.00,,---,0.00,VWS V14.01,2013-08-02 21:27:00,
2013-08-02 14:30:00,56.3,52.5,29.94,NW,326,22.0,26.0,87,0.00,,---,0.00,VWS V14.01,2013-08-02 21:30:00,
2013-08-02 14:32:00,56.0,52.2,29.93,NNW,334,23.0,26.0,87,0.00,,---,0.00,VWS V14.01,2013-08-02 21:32:00,
2013-08-02 14:38:00,56.2,52.4,29.93,NW,313,20.0,26.0,87,0.00,,---,0.00,VWS V14.01,2013-08-02 21:38:00,
2013-08-02 14:43:00,56.6,52.8,29.93,NNW,347,18.0,26.0,87,0.00,,---,0.00,VWS V14.01,2013-08-02 21:43:00,
2013-08-02 14:48:00,55.8,52.0,29.93,North,360,15.0,28.0,87,0.00,,---,0.00,VWS V14.01,2013-08-02 21:48:00,
2013-08-02 14:53:00,55.8,52.0,29.93,NW,313,19.0,28.0,87,0.00,,---,0.00,VWS V14.01,2013-08-02 21:53:00,
2013-08-02 14:58:00,56.0,52.2,29.93,NW,315,24.0,28.0,87,0.00,,---,0.00,VWS V14.01,2013-08-02 21:58:00,
2013-08-02 15:00:00,56.0,52.2,29.93,NNW,330,22.0,28.0,87,0.00,,---,0.00,VWS V14.01,2013-08-02 22:00:00,
2013-08-02 15:03:00,55.9,52.1,29.92,NW,319,22.0,27.0,87,0.00,,---,0.00,VWS V14.01,2013-08-02 22:03:00,
2013-08-02 15:08:00,56.2,52.4,29.92,NW,319,17.0,28.0,87,0.01,,---,0.01,VWS V14.01,2013-08-02 22:08:00,
2013-08-02 15:13:00,56.7,52.9,29.92,NW,315,19.0,28.0,87,0.01,,---,0.01,VWS V14.01,2013-08-02 22:13:00,
2013-08-02 15:18:00,56.9,53.1,29.92,NW,322,23.0,28.0,87,0.01,,---,0.01,VWS V14.01,2013-08-02 22:18:00,
2013-08-02 15:23:00,56.7,52.9,29.92,WNW,284,20.0,28.0,87,0.01,,---,0.01,VWS V14.01,2013-08-02 22:23:00,
2013-08-02 15:28:00,57.0,53.2,29.92,NW,321,16.0,28.0,87,0.01,,---,0.01,VWS V14.01,2013-08-02 22:28:00,
2013-08-02 15:30:00,57.0,53.2,29.92,NW,321,16.0,28.0,87,0.01,,---,0.01,VWS V14.01,2013-08-02 22:30:00,
2013-08-02 15:34:00,56.2,52.4,29.92,NW,313,24.0,28.0,87,0.01,,---,0.01,VWS V14.01,2013-08-02 22:34:00,
2013-08-02 15:39:00,56.2,52.4,29.91,NW,314,20.0,28.0,87,0.01,,---,0.01,VWS V14.01,2013-08-02 22:39:00,
2013-08-02 15:44:00,56.1,52.3,29.91,NW,317,27.0,28.0,87,0.01,,---,0.01,VWS V14.01,2013-08-02 22:44:00,
2013-08-02 15:49:00,55.7,51.9,29.91,NW,319,23.0,29.0,87,0.01,,---,0.01,VWS V14.01,2013-08-02 22:49:00,
2013-08-02 15:54:00,55.5,51.7,29.91,WNW,299,27.0,29.0,87,0.01,,---,0.01,VWS V14.01,2013-08-02 22:54:00,
2013-08-02 15:59:00,55.0,51.2,29.91,NW,318,25.0,27.0,87,0.01,,---,0.01,VWS V14.01,2013-08-02 22:59:00,
2013-08-02 16:00:00,55.1,51.3,29.91,NW,325,21.0,29.0,87,0.01,,---,0.01,VWS V14.01,2013-08-02 23:00:00,
2013-08-02 16:04:00,55.0,50.9,29.91,NW,319,16.0,27.0,86,0.01,,---,0.01,VWS V14.01,2013-08-02 23:04:00,
2013-08-02 16:10:00,55.3,51.2,29.91,WNW,288,16.0,27.0,86,0.01,,---,0.01,VWS V14.01,2013-08-02 23:10:00,
2013-08-02 16:15:00,54.8,51.0,29.91,NW,325,18.0,27.0,87,0.01,,---,0.01,VWS V14.01,2013-08-02 23:15:00,
2013-08-02 16:20:00,54.0,49.9,29.92,NW,317,24.0,28.0,86,0.01,,---,0.01,VWS V14.01,2013-08-02 23:20:00,
2013-08-02 16:25:00,53.9,49.2,29.91,NW,324,21.0,30.0,84,0.01,,---,0.01,VWS V14.01,2013-08-02 23:25:00,
2013-08-02 16:30:00,53.8,49.1,29.91,NNW,348,23.0,25.0,84,0.00,,---,0.01,VWS V14.01,2013-08-02 23:30:00,
2013-08-02 16:35:00,53.9,48.9,29.91,NNW,327,24.0,26.0,83,0.00,,---,0.01,VWS V14.01,2013-08-02 23:35:00,
2013-08-02 16:40:00,54.0,49.3,29.91,NNW,339,27.0,29.0,84,0.00,,---,0.01,VWS V14.01,2013-08-02 23:40:00,
2013-08-02 16:45:00,54.2,49.5,29.91,NNW,328,21.0,29.0,84,0.00,,---,0.01,VWS V14.01,2013-08-02 23:45:00,
2013-08-02 16:50:00,54.4,50.0,29.91,NW,319,16.0,30.0,85,0.00,,---,0.01,VWS V14.01,2013-08-02 23:50:00,
2013-08-02 16:55:00,54.5,50.1,29.91,NW,313,28.0,30.0,85,0.00,,---,0.01,VWS V14.01,2013-08-02 23:55:00,
2013-08-02 17:00:00,54.6,50.2,29.91,NW,306,14.0,30.0,85,0.00,,---,0.01,VWS V14.01,2013-08-03 00:00:00,
2013-08-02 17:01:00,54.8,50.4,29.91,NW,317,17.0,25.0,85,0.00,,---,0.01,VWS V14.01,2013-08-03 00:01:00,
2013-08-02 17:06:00,54.9,50.8,29.90,NW,310,27.0,27.0,86,0.00,,---,0.01,VWS V14.01,2013-08-03 00:06:00,
2013-08-02 17:11:00,54.3,49.9,29.90,NW,318,19.0,28.0,85,0.00,,---,0.01,VWS V14.01,2013-08-03 00:11:00,
2013-08-02 17:17:00,54.4,50.0,29.90,NW,323,29.0,29.0,85,0.00,,---,0.01,VWS V14.01,2013-08-03 00:17:00,
2013-08-02 17:22:00,53.9,49.2,29.90,NW,326,22.0,29.0,84,0.00,,---,0.01,VWS V14.01,2013-08-03 00:22:00,
2013-08-02 17:27:00,54.0,49.3,29.90,NW,311,19.0,29.0,84,0.00,,---,0.01,VWS V14.01,2013-08-03 00:27:00,
2013-08-02 17:30:00,54.0,49.3,29.90,NW,313,18.0,29.0,84,0.00,,---,0.01,VWS V14.01,2013-08-03 00:30:00,
2013-08-02 17:32:00,54.0,49.0,29.90,NW,319,27.0,28.0,83,0.00,,---,0.01,VWS V14.01,2013-08-03 00:32:00,
2013-08-02 17:37:00,53.9,48.9,29.90,NW,305,23.0,30.0,83,0.00,,---,0.01,VWS V14.01,2013-08-03 00:37:00,
2013-08-02 17:42:00,54.0,49.0,29.90,NW,316,17.0,30.0,83,0.00,,---,0.01,VWS V14.01,2013-08-03 00:42:00,
2013-08-02 17:47:00,54.2,49.5,29.90,NW,322,17.0,30.0,84,0.00,,---,0.01,VWS V14.01,2013-08-03 00:47:00,
2013-08-02 17:53:00,54.1,49.4,29.90,NNW,327,19.0,30.0,84,0.00,,---,0.01,VWS V14.01,2013-08-03 00:53:00,
2013-08-02 17:58:00,54.0,49.0,29.90,NNW,341,24.0,30.0,83,0.00,,---,0.01,VWS V14.01,2013-08-03 00:58:00,
2013-08-02 18:00:00,53.9,48.9,29.90,NW,311,22.0,30.0,83,0.00,,---,0.01,VWS V14.01,2013-08-03 01:00:00,
2013-08-02 18:03:00,54.0,49.0,29.90,NW,323,20.0,27.0,83,0.00,,---,0.01,VWS V14.01,2013-08-03 01:03:00,
2013-08-02 18:08:00,53.7,48.7,29.90,NW,313,19.0,28.0,83,0.00,,---,0.01,VWS V14.01,2013-08-03 01:08:00,
2013-08-02 18:13:00,53.7,48.3,29.90,NNW,329,20.0,29.0,82,0.00,,---,0.01,VWS V14.01,2013-08-03 01:13:00,
2013-08-02 18:18:00,53.6,48.2,29.90,NW,317,17.0,30.0,82,0.00,,---,0.01,VWS V14.01,2013-08-03 01:18:00,
2013-08-02 18:23:00,53.7,48.3,29.90,NW,326,20.0,30.0,82,0.00,,---,0.01,VWS V14.01,2013-08-03 01:23:00,
2013-08-02 18:28:00,53.6,48.2,29.90,NW,319,20.0,30.0,82,0.00,,---,0.01,VWS V14.01,2013-08-03 01:28:00,
2013-08-02 18:30:00,53.6,48.2,29.90,NW,319,20.0,30.0,82,0.00,,---,0.01,VWS V14.01,2013-08-03 01:30:00,
2013-08-02 18:34:00,53.5,47.8,29.90,NW,311,18.0,29.0,81,0.00,,---,0.01,VWS V14.01,2013-08-03 01:34:00,
2013-08-02 18:39:00,53.4,47.7,29.89,NNW,336,21.0,29.0,81,0.00,,---,0.01,VWS V14.01,2013-08-03 01:39:00,
2013-08-02 18:44:00,53.4,47.7,29.89,NW,316,19.0,33.0,81,0.00,,---,0.01,VWS V14.01,2013-08-03 01:44:00,
2013-08-02 18:49:00,53.3,47.3,29.89,WNW,298,20.0,33.0,80,0.00,,---,0.01,VWS V14.01,2013-08-03 01:49:00,
2013-08-02 18:55:00,53.3,47.3,29.89,NW,306,29.0,33.0,80,0.00,,---,0.01,VWS V14.01,2013-08-03 01:55:00,
2013-08-02 18:59:00,53.2,47.2,29.89,NW,320,24.0,26.0,80,0.00,,---,0.01,VWS V14.01,2013-08-03 01:59:00,
2013-08-02 19:00:00,53.1,47.1,29.89,NNW,335,28.0,33.0,80,0.00,,---,0.01,VWS V14.01,2013-08-03 02:00:00,
2013-08-02 19:05:00,53.1,46.8,29.89,NW,313,18.0,32.0,79,0.00,,---,0.01,VWS V14.01,2013-08-03 02:05:00,
2013-08-02 19:10:00,53.2,46.9,29.89,NW,311,22.0,32.0,79,0.00,,---,0.01,VWS V14.01,2013-08-03 02:10:00,
2013-08-02 19:15:00,53.1,47.1,29.89,NW,313,21.0,32.0,80,0.00,,---,0.01,VWS V14.01,2013-08-03 02:15:00,
2013-08-02 19:20:00,53.1,46.8,29.89,NNW,329,16.0,32.0,79,0.00,,---,0.01,VWS V14.01,2013-08-03 02:20:00,
2013-08-02 19:25:00,53.0,46.7,29.89,NW,321,23.0,32.0,79,0.00,,---,0.01,VWS V14.01,2013-08-03 02:25:00,
2013-08-02 19:30:00,53.0,46.7,29.88,North,360,23.0,29.0,79,0.00,,---,0.01,VWS V14.01,2013-08-03 02:30:00,
2013-08-02 19:35:00,52.9,46.6,29.89,NW,316,25.0,30.0,79,0.00,,---,0.01,VWS V14.01,2013-08-03 02:35:00,
2013-08-02 19:41:00,53.0,46.3,29.88,NW,319,22.0,30.0,78,0.00,,---,0.01,VWS V14.01,2013-08-03 02:41:00,
2013-08-02 19:46:00,52.9,46.6,29.88,NW,318,23.0,30.0,79,0.00,,---,0.01,VWS V14.01,2013-08-03 02:46:00,
2013-08-02 19:51:00,53.0,46.3,29.89,NW,321,20.0,30.0,78,0.00,,---,0.01,VWS V14.01,2013-08-03 02:51:00,
2013-08-02 19:56:00,52.9,46.6,29.88,NW,317,21.0,30.0,79,0.00,,---,0.01,VWS V14.01,2013-08-03 02:56:00,
2013-08-02 20:00:00,53.0,46.3,29.88,NW,312,15.0,30.0,78,0.00,,---,0.01,VWS V14.01,2013-08-03 03:00:00,
2013-08-02 20:01:00,52.9,46.2,29.88,NW,318,20.0,25.0,78,0.00,,---,0.01,VWS V14.01,2013-08-03 03:01:00,
2013-08-02 20:07:00,52.9,46.6,29.88,NW,323,22.0,28.0,79,0.00,,---,0.01,VWS V14.01,2013-08-03 03:07:00,
2013-08-02 20:12:00,52.9,46.2,29.89,NW,326,18.0,28.0,78,0.00,,---,0.01,VWS V14.01,2013-08-03 03:12:00,
2013-08-02 20:17:00,52.9,46.2,29.89,NW,311,16.0,28.0,78,0.00,,---,0.01,VWS V14.01,2013-08-03 03:17:00,
2013-08-02 20:22:00,53.0,46.3,29.89,NW,322,15.0,28.0,78,0.00,,---,0.01,VWS V14.01,2013-08-03 03:22:00,
2013-08-02 20:28:00,52.9,46.2,29.90,NW,313,24.0,28.0,78,0.00,,---,0.01,VWS V14.01,2013-08-03 03:28:00,
2013-08-02 20:30:00,52.9,46.2,29.90,NW,313,15.0,28.0,78,0.00,,---,0.01,VWS V14.01,2013-08-03 03:30:00,
2013-08-02 20:33:00,52.9,46.2,29.90,NNW,333,21.0,25.0,78,0.00,,---,0.01,VWS V14.01,2013-08-03 03:33:00,
2013-08-02 20:38:00,52.8,46.1,29.90,NW,323,17.0,26.0,78,0.00,,---,0.01,VWS V14.01,2013-08-03 03:38:00,
2013-08-02 20:43:00,52.8,46.1,29.90,NW,318,20.0,26.0,78,0.00,,---,0.01,VWS V14.01,2013-08-03 03:43:00,
2013-08-02 20:48:00,52.8,46.1,29.90,NW,317,18.0,27.0,78,0.00,,---,0.01,VWS V14.01,2013-08-03 03:48:00,
2013-08-02 20:53:00,52.7,45.7,29.90,North,360,15.0,27.0,77,0.00,,---,0.01,VWS V14.01,2013-08-03 03:53:00,
2013-08-02 20:58:00,52.6,45.6,29.90,NNW,338,16.0,27.0,77,0.00,,---,0.01,VWS V14.01,2013-08-03 03:58:00,
2013-08-02 21:00:00,52.6,45.6,29.90,NW,326,23.0,27.0,77,0.00,,---,0.01,VWS V14.01,2013-08-03 04:00:00,
2013-08-02 21:01:00,52.5,45.5,29.91,NW,316,21.0,25.0,77,0.00,,---,0.01,VWS V14.01,2013-08-03 04:01:00,
2013-08-02 21:02:00,52.5,45.5,29.90,North,360,16.0,25.0,77,0.00,,---,0.01,VWS V14.01,2013-08-03 04:02:00,
2013-08-02 21:03:00,52.6,45.6,29.90,NW,325,18.0,26.0,77,0.00,,---,0.01,VWS V14.01,2013-08-03 04:03:00,
2013-08-02 21:04:00,52.6,45.6,29.90,NW,311,15.0,26.0,77,0.00,,---,0.01,VWS V14.01,2013-08-03 04:04:00,
2013-08-02 21:09:00,52.6,45.6,29.91,NW,326,27.0,28.0,77,0.00,,---,0.01,VWS V14.01,2013-08-03 04:09:00,
2013-08-02 21:14:00,52.5,45.5,29.91,NW,313,16.0,28.0,77,0.00,,---,0.01,VWS V14.01,2013-08-03 04:14:00,
2013-08-02 21:19:00,52.4,45.4,29.91,NNW,348,18.0,29.0,77,0.00,,---,0.01,VWS V14.01,2013-08-03 04:19:00,
2013-08-02 21:24:00,52.5,45.2,29.91,NW,313,20.0,29.0,76,0.00,,---,0.01,VWS V14.01,2013-08-03 04:24:00,
2013-08-02 21:29:00,52.5,45.5,29.91,NW,318,17.0,23.0,77,0.00,,---,0.01,VWS V14.01,2013-08-03 04:29:00,
2013-08-02 21:30:00,52.5,45.5,29.91,NW,313,19.0,29.0,77,0.00,,---,0.01,VWS V14.01,2013-08-03 04:30:00,
2013-08-02 21:35:00,52.5,45.2,29.91,NW,319,16.0,28.0,76,0.00,,---,0.01,VWS V14.01,2013-08-03 04:35:00,
2013-08-02 21:40:00,52.4,45.1,29.91,NW,313,18.0,28.0,76,0.00,,---,0.01,VWS V14.01,2013-08-03 04:40:00,
2013-08-02 21:45:00,52.4,45.1,29.92,NNW,331,22.0,28.0,76,0.00,,---,0.01,VWS V14.01,2013-08-03 04:45:00,
2013-08-02 21:50:00,52.4,45.1,29.92,NW,322,15.0,28.0,76,0.00,,---,0.01,VWS V14.01,2013-08-03 04:50:00,
2013-08-02 21:55:00,52.4,45.1,29.92,NW,313,20.0,28.0,76,0.00,,---,0.01,VWS V14.01,2013-08-03 04:55:00,
2013-08-02 22:00:00,52.3,45.0,29.92,NW,319,11.0,19.0,76,0.00,,---,0.01,VWS V14.01,2013-08-03 05:00:00,
2013-08-02 22:05:00,52.4,44.7,29.92,NNW,338,5.0,22.0,75,0.00,,---,0.01,VWS V14.01,2013-08-03 05:05:00,
2013-08-02 22:10:00,52.5,44.8,29.92,NNW,327,4.0,22.0,75,0.00,,---,0.01,VWS V14.01,2013-08-03 05:10:00,
2013-08-02 22:15:00,52.6,44.9,29.92,West,272,3.0,22.0,75,0.00,,---,0.01,VWS V14.01,2013-08-03 05:15:00,
2013-08-02 22:21:00,52.5,45.2,29.92,NW,323,5.0,22.0,76,0.00,,---,0.01,VWS V14.01,2013-08-03 05:21:00,
2013-08-02 22:25:00,52.5,44.8,29.92,North,360,6.0,22.0,75,0.00,,---,0.01,VWS V14.01,2013-08-03 05:25:00,
2013-08-02 22:30:00,52.5,45.2,29.92,NNW,337,3.0,22.0,76,0.00,,---,0.01,VWS V14.01,2013-08-03 05:30:00,
2013-08-02 22:31:00,52.5,44.8,29.92,WSW,252,3.0,9.0,75,0.00,,---,0.01,VWS V14.01,2013-08-03 05:31:00,
2013-08-02 22:36:00,52.5,44.8,29.92,NNE,26,0.0,11.0,75,0.00,,---,0.01,VWS V14.01,2013-08-03 05:36:00,
2013-08-02 22:41:00,52.5,44.8,29.93,ENE,57,1.0,11.0,75,0.00,,---,0.01,VWS V14.01,2013-08-03 05:41:00,
2013-08-02 22:46:00,52.6,44.9,29.92,SE,136,0.0,11.0,75,0.00,,---,0.01,VWS V14.01,2013-08-03 05:46:00,
2013-08-02 22:51:00,52.6,44.9,29.92,NNW,335,0.0,11.0,75,0.00,,---,0.01,VWS V14.01,2013-08-03 05:51:00,
2013-08-02 22:57:00,52.6,44.9,29.93,North,360,6.0,12.0,75,0.00,,---,0.01,VWS V14.01,2013-08-03 05:57:00,
2013-08-02 23:00:00,52.6,44.9,29.93,NW,306,1.0,12.0,75,0.00,,---,0.01,VWS V14.01,2013-08-03 06:00:00,
2013-08-02 23:02:00,52.6,45.3,29.93,NNW,337,0.0,5.0,76,0.00,,---,0.01,VWS V14.01,2013-08-03 06:02:00,
2013-08-02 23:07:00,52.7,45.4,29.93,East,84,0.0,5.0,76,0.00,,---,0.01,VWS V14.01,2013-08-03 06:07:00,
2013-08-02 23:12:00,52.7,45.4,29.93,SE,132,0.0,6.0,76,0.00,,---,0.01,VWS V14.01,2013-08-03 06:12:00,
2013-08-02 23:17:00,52.6,45.3,29.93,South,184,0.0,6.0,76,0.00,,---,0.01,VWS V14.01,2013-08-03 06:17:00,
2013-08-02 23:22:00,52.6,45.3,29.93,SSW,196,0.0,6.0,76,0.00,,---,0.01,VWS V14.01,2013-08-03 06:22:00,
2013-08-02 23:27:00,52.6,45.3,29.93,SSW,195,0.0,6.0,76,0.00,,---,0.01,VWS V14.01,2013-08-03 06:27:00,
2013-08-02 23:30:00,52.7,45.4,29.93,SSW,194,0.0,6.0,76,0.00,,---,0.01,VWS V14.01,2013-08-03 06:30:00,
2013-08-02 23:33:00,52.6,45.3,29.93,NW,317,3.0,12.0,76,0.00,,---,0.01,VWS V14.01,2013-08-03 06:33:00,
2013-08-02 23:38:00,52.6,45.3,29.93,East,90,7.0,12.0,76,0.00,,---,0.01,VWS V14.01,2013-08-03 06:38:00,
2013-08-02 23:43:00,52.6,45.3,29.93,South,169,0.0,12.0,76,0.00,,---,0.01,VWS V14.01,2013-08-03 06:43:00,
2013-08-02 23:48:00,52.5,45.2,29.93,West,265,0.0,12.0,76,0.00,,---,0.01,VWS V14.01,2013-08-03 06:48:00,
2013-08-02 23:53:00,52.6,45.3,29.93,SSW,204,0.0,12.0,76,0.00,,---,0.01,VWS V14.01,2013-08-03 06:53:00,
2013-08-02 23:58:00,52.6,45.3,29.93,ESE,119,0.0,12.0,76,0.00,,---,0.01,VWS V14.01,2013-08-03 06:58:00,